Location: *
(49.7115°N, 15.0136°E)
Time: 02:52:14
(UTC+00:00)

NOSS 2-3 (C) - Pass Details

Date: 27 February 2020
Orbit: 585 x 1627 km, 63.4° (Epoch: 26 March)

Event Time Altitude Azimuth Distance (km) Brightness Sun altitude
Rises 17:51:15 0° 234° (SW) 2,849 7.9 -12.6°
Reaches altitude 10° 17:53:23 10° 238° (WSW) 2,001 7.1 -12.9°
Maximum altitude 17:57:46 60° 319° (NW) 808 4.3 -13.6°
Drops below altitude 10° 18:03:09 10° 40° (NE) 2,443 6.3 -14.5°
Enters shadow 18:04:31 - 42° (NE) 2,974 6.7 -14.7°
